FW5404 Weather Reports


Display with metric or nautical units.
time (UTC)temp
F
wind
direction
speed
MPH
gust
MPH
rain 1hr
in
rain 24hr
in
rain mn
in
humidity
%
barometer
mb
20260503202504 54 0 0.0 0.0 0.00 0.00 0.00 100 1018.3
20260503202004 55 0 0.0 0.0 0.00 0.00 0.00 100 1018.3
20260503201504 55 0 0.0 0.0 0.00 0.00 0.00 99 1018.3
20260503201005 55 0 0.0 0.0 0.00 0.00 0.00 99 1018.3
20260503200504 55 0 0.0 0.0 0.00 0.00 0.00 99 1018.3
20260503200006 55 0 0.0 0.0 0.00 0.00 0.00 100 1018.3
20260503195504 55 158 0.0 1.0 0.00 0.00 0.00 100 1018.3
20260503195005 55 158 1.0 2.0 0.00 0.00 0.00 100 1018.3
20260503194504 55 177 2.0 2.0 0.00 0.00 0.00 100 1018.3
20260503194004 56 193 2.0 2.0 0.00 0.00 0.00 100 1018.3
20260503193504 56 203 1.0 2.0 0.00 0.00 0.00 97 1018.3
20260503193004 56 203 0.0 1.0 0.00 0.00 0.00 97 1018.3
20260503192503 56 0 0.0 0.0 0.00 0.00 0.00 97 1018.3
20260503192004 56 0 0.0 0.0 0.00 0.00 0.00 97 1018.3
20260503191504 56 248 0.0 1.0 0.00 0.00 0.00 100 1018.3
20260503191005 56 248 0.0 1.0 0.00 0.00 0.00 97 1018.3
20260503190504 56 248 0.0 1.0 0.00 0.00 0.00 97 1018.3
20260503190006 56 203 1.0 2.0 0.00 0.00 0.00 97 1018.3
20260503185504 56 203 1.0 2.0 0.00 0.00 0.00 97 1018.3
20260503185004 56 203 1.0 2.0 0.00 0.00 0.00 97 1018.3
20260503184504 56 203 1.0 2.0 0.00 0.00 0.00 97 1018.3
20260503184005 57 225 0.0 2.0 0.00 0.00 0.00 97 1018.3
20260503183506 57 248 1.0 2.0 0.00 0.00 0.00 97 1018.3
20260503183005 57 248 2.0 3.0 0.00 0.00 0.00 97 1018.3
20260503182505 57 257 2.0 3.0 0.00 0.00 0.00 97 1018.3
20260503182006 57 282 1.0 2.0 0.00 0.00 0.00 96 1018.3
20260503181506 58 296 1.0 2.0 0.00 0.00 0.00 96 1018.3
20260503181006 58 300 1.0 2.0 0.00 0.00 0.00 96 1018.3
20260503180506 58 337 1.0 1.0 0.00 0.00 0.00 96 1018.3
20260503180007 58 0 0.0 0.0 0.00 0.00 0.00 96 1017.3
20260503175505 58 0 0.0 0.0 0.00 0.00 0.00 96 1017.3
20260503175005 58 0 0.0 0.0 0.00 0.00 0.00 96 1017.3
20260503174505 58 0 0.0 0.0 0.00 0.00 0.00 95 1017.3
20260503174005 59 0 0.0 0.0 0.00 0.00 0.00 96 1017.3
20260503173505 59 0 0.0 0.0 0.00 0.00 0.00 96 1017.3
20260503173006 59 0 0.0 0.0 0.00 0.00 0.00 96 1017.3
20260503172506 58 0 0.0 0.0 0.00 0.00 0.00 96 1017.3
20260503172006 58 0 0.0 0.0 0.00 0.00 0.00 97 1017.3
20260503171505 57 0 0.0 0.0 0.00 0.00 0.00 97 1017.3
20260503171007 57 0 0.0 0.0 0.00 0.00 0.00 97 1017.3
20260503170505 57 39 0.0 2.0 0.00 0.00 0.00 97 1017.3
20260503151006 56 257 4.0 4.0 0.00 0.00 0.00 96 1017.3
20260503150505 57 274 3.0 4.0 0.00 0.00 0.00 95 1017.3
20260503131005 60 308 3.0 4.0 0.00 0.00 0.00 88 1017.3
20260503130505 60 293 3.0 3.0 0.00 0.00 0.00 89 1017.3
20260503110505 61 123 4.0 5.0 0.00 0.00 0.00 82 1018.3
20260503090505 58 112 2.0 2.0 0.00 0.00 0.00 93 1018.3
20260503081505 56 85 3.0 4.0 0.00 0.00 0.00 100 1018.3
20260503081004 56 84 2.0 4.0 0.00 0.00 0.00 100 1018.3
20260503080504 56 97 2.0 3.0 0.00 0.00 0.00 99 1018.3
20260503072504 55 97 3.0 5.0 0.00 0.00 0.00 99 1018.3
20260503072005 55 93 3.0 4.0 0.00 0.00 0.00 99 1018.3
20260503071504 55 93 3.0 4.0 0.00 0.00 0.00 99 1018.3
20260503071005 55 90 3.0 4.0 0.00 0.00 0.00 99 1018.3
20260503070504 55 83 3.0 4.0 0.00 0.00 0.00 99 1018.3
20260503055004 54 102 2.0 3.0 0.00 0.00 0.00 99 1017.3
20260503054504 53 94 2.0 3.0 0.00 0.00 0.00 99 1017.3
20260503054004 53 90 3.0 3.0 0.00 0.00 0.00 99 1017.3
20260503053504 53 95 3.0 3.0 0.00 0.00 0.00 99 1017.3
20260503053004 53 84 3.0 3.0 0.00 0.00 0.00 99 1017.3
20260503052504 54 79 2.0 3.0 0.00 0.00 0.00 99 1017.3
20260503052004 54 85 2.0 3.0 0.00 0.00 0.00 99 1017.3
20260503051504 54 82 2.0 3.0 0.00 0.00 0.00 99 1017.3
20260503051004 54 77 3.0 3.0 0.00 0.00 0.00 99 1017.3
20260503050504 54 83 3.0 4.0 0.00 0.00 0.00 99 1017.3
20260503050006 54 94 2.0 4.0 0.00 0.00 0.00 99 1017.3
20260503045504 54 100 1.0 2.0 0.00 0.00 0.00 99 1017.3
20260503045004 54 91 1.0 2.0 0.00 0.00 0.00 99 1017.3
20260503044505 54 86 2.0 2.0 0.00 0.00 0.00 99 1017.3
20260503044005 54 88 1.0 2.0 0.00 0.00 0.00 99 1017.3
20260503043504 54 84 1.0 2.0 0.00 0.00 0.00 99 1017.3
20260503043004 54 78 1.0 2.0 0.00 0.00 0.00 99 1017.3
20260503042504 54 81 2.0 2.0 0.00 0.00 0.00 99 1017.3
20260503042004 54 87 2.0 3.0 0.00 0.00 0.00 99 1017.3
20260503041504 54 91 2.0 3.0 0.00 0.00 0.00 99 1018.3
20260503041004 54 84 2.0 2.0 0.00 0.00 0.00 99 1018.3
20260503040505 54 81 1.0 2.0 0.00 0.00 0.00 99 1018.3
20260503040006 54 78 1.0 2.0 0.00 0.00 0.00 99 1018.3
20260503035504 54 81 1.0 2.0 0.00 0.00 0.00 99 1018.3
20260503035004 54 0 0.0 0.0 0.00 0.00 0.00 99 1018.3
20260503034504 54 0 0.0 0.0 0.00 0.00 0.00 99 1018.3
20260503034004 54 0 0.0 0.0 0.00 0.00 0.00 99 1018.3
20260503033504 54 0 0.0 0.0 0.00 0.00 0.00 99 1018.3
20260503033004 54 0 0.0 0.0 0.00 0.00 0.00 99 1018.3
20260503032504 54 0 0.0 0.0 0.00 0.00 0.00 99 1018.3
20260503032004 54 0 0.0 0.0 0.00 0.00 0.00 99 1018.3
20260503031504 54 0 0.0 0.0 0.00 0.00 0.00 99 1018.3
20260503031004 54 0 0.0 0.0 0.00 0.00 0.00 99 1018.3
20260503030504 54 0 0.0 0.0 0.00 0.00 0.00 99 1018.3
20260503030005 54 0 0.0 0.0 0.00 0.00 0.00 99 1018.3
20260503025504 54 68 0.0 1.0 0.00 0.00 0.00 99 1018.3
20260503025004 54 68 0.0 1.0 0.00 0.00 0.00 99 1018.3
20260503024504 54 0 0.0 0.0 0.00 0.00 0.00 99 1018.3
20260503024004 54 0 0.0 0.0 0.00 0.00 0.00 99 1018.3
20260503023504 54 0 0.0 0.0 0.00 0.00 0.00 99 1018.3
20260503023004 54 90 0.0 1.0 0.00 0.00 0.00 99 1018.3
20260503022504 54 83 1.0 1.0 0.00 0.00 0.00 99 1018.3
20260503022004 54 81 1.0 1.0 0.00 0.00 0.00 99 1018.3
20260503021504 54 90 1.0 2.0 0.00 0.00 0.00 99 1018.3